Date String (YYYY-MM-DD hh:mm:ss) UTC,Instrument flags,Ambient pressure (hPa),Sample flow (lpm),Bypass flow (lpm),Sample temperature (°C),Ambient temperature (°C),ASC tube jacket temperature (°C),LED temperature (°C),Box temperature (°C),Sample RH (%),Span deviation,Mass concentration (μg/m³),Mass concentration (μg/m³),Mass concentration (μg/m³)
DateTimeUTC,F1_M11,P_M11,Q1_M11,Q2_M11,T1_M11,T2_M11,T3_M11,T4_M11,T5_M11,U1_M11,ZSPAN_M11,X0_M11,X2_M11,X1_M11
2021-11-15 08:00:00,,0825.9,5.00,0.00,26.4,25.6,00.0,35.4,28.1,13.6,0000.0,0003.27,0000.77,0000.36
2021-11-15 08:01:00,,0825.7,5.00,0.00,26.4,25.6,00.0,35.4,28.2,13.5,0000.0,0002.86,0000.75,0000.36
2021-11-15 08:02:00,,0825.7,5.01,0.00,26.5,25.6,00.0,35.4,28.3,13.5,0000.0,0003.34,0000.70,0000.36
2021-11-15 08:03:00,,0825.7,5.00,0.00,26.5,25.6,00.0,35.4,28.3,13.5,0000.0,0003.86,0000.67,0000.37
2021-11-15 08:04:00,,0825.8,5.01,0.00,26.5,25.7,00.0,35.5,28.3,13.5,0000.0,0003.80,0000.64,0000.37
2021-11-15 08:05:00,,0825.7,4.99,0.00,26.5,25.7,00.0,35.5,28.3,13.5,0000.0,0003.76,0000.64,0000.38
2021-11-15 08:06:00,,0825.7,5.00,0.00,26.5,25.7,00.0,35.5,28.2,13.3,0000.0,0003.63,0000.62,0000.38
2021-11-15 08:07:00,,0825.6,5.01,0.00,26.5,25.7,00.0,35.5,28.3,13.2,0000.0,0003.60,0000.62,0000.38
2021-11-15 08:08:00,,0825.8,4.99,0.00,26.5,25.7,00.0,35.5,28.3,13.0,0000.0,0003.64,0000.63,0000.39
2021-11-15 08:09:00,,0825.7,5.00,0.00,26.5,25.7,00.0,35.5,28.2,13.1,0000.0,0002.54,0000.64,0000.38
2021-11-15 08:10:00,,0825.7,5.01,0.00,26.5,25.7,00.0,35.5,28.2,13.1,0000.0,0002.38,0000.67,0000.38
2021-11-15 08:11:00,,0825.9,5.00,0.00,26.5,25.7,00.0,35.5,28.2,13.1,0000.0,0002.44,0000.68,0000.39
2021-11-15 08:12:00,,0825.8,5.00,0.00,26.5,25.7,00.0,35.5,28.2,13.1,0000.0,0002.46,0000.69,0000.38
2021-11-15 08:13:00,,0825.6,5.00,0.00,26.5,25.8,00.0,35.5,28.3,12.8,0000.0,0001.90,0000.67,0000.38
2021-11-15 08:14:00,,0825.8,5.00,0.00,26.5,25.8,00.0,35.5,28.3,12.7,0000.0,0001.10,0000.63,0000.37
2021-11-15 08:15:00,,0826.0,5.00,0.00,26.5,25.8,00.0,35.5,28.3,13.0,0000.0,0001.09,0000.62,0000.36
2021-11-15 08:16:00,,0825.9,4.99,0.00,26.5,25.8,00.0,35.5,28.3,13.0,0000.0,0001.02,0000.59,0000.35
2021-11-15 08:17:00,,0825.9,4.99,0.00,26.5,25.8,00.0,35.5,28.3,13.0,0000.0,0001.03,0000.59,0000.35
2021-11-15 08:18:00,,0826.0,5.00,0.00,26.5,25.8,00.0,35.5,28.3,13.0,0000.0,0001.09,0000.61,0000.34
2021-11-15 08:19:00,,0825.9,5.00,0.00,26.5,25.8,00.0,35.5,28.3,13.0,0000.0,0001.12,0000.60,0000.34
2021-11-15 08:20:00,,0825.9,5.01,0.00,26.5,25.8,00.0,35.5,28.3,13.0,0000.0,0001.25,0000.60,0000.35
2021-11-15 08:21:00,,0825.9,5.00,0.00,26.5,25.7,00.0,35.5,28.2,12.9,0000.0,0001.18,0000.58,0000.35
2021-11-15 08:22:00,,0825.9,5.01,0.00,26.5,25.7,00.0,35.5,28.2,12.9,0000.0,0001.23,0000.57,0000.35
2021-11-15 08:23:00,,0825.8,4.99,0.00,26.5,25.7,00.0,35.5,28.3,12.9,0000.0,0001.35,0000.59,0000.36
2021-11-15 08:24:00,,0825.8,5.00,0.00,26.5,25.7,00.0,35.5,28.3,12.9,0000.0,0001.42,0000.62,0000.36
2021-11-15 08:25:00,,0825.8,5.01,0.00,26.5,25.8,00.0,35.5,28.2,12.7,0000.0,0001.40,0000.62,0000.35
2021-11-15 08:26:00,,0825.8,5.00,0.00,26.5,25.8,00.0,35.5,28.3,12.8,0000.0,0001.36,0000.60,0000.35
2021-11-15 08:27:00,,0825.9,5.00,0.00,26.5,25.8,00.0,35.5,28.3,12.8,0000.0,0001.33,0000.59,0000.35
2021-11-15 08:28:00,,0825.7,5.00,0.00,26.5,25.8,00.0,35.5,28.3,12.6,0000.0,0001.37,0000.60,0000.34
2021-11-15 08:29:00,,0825.6,5.00,0.00,26.5,25.8,00.0,35.5,28.3,12.6,0000.0,0001.37,0000.60,0000.34
2021-11-15 08:30:00,,0825.6,5.00,0.00,26.5,25.8,00.0,35.5,28.3,12.6,0000.0,0001.34,0000.61,0000.33
2021-11-15 08:31:00,,0825.6,5.00,0.00,26.5,25.8,00.0,35.5,28.3,12.8,0000.0,0001.18,0000.59,0000.32
2021-11-15 08:32:00,,0825.6,5.00,0.00,26.5,25.8,00.0,35.5,28.3,12.6,0000.0,0001.20,0000.60,0000.32
2021-11-15 08:33:00,,0825.6,5.00,0.00,26.5,25.8,00.0,35.5,28.3,12.6,0000.0,0001.10,0000.59,0000.32
2021-11-15 08:34:00,,0825.6,5.00,0.00,26.5,25.8,00.0,35.5,28.3,12.7,0000.0,0000.97,0000.57,0000.32
2021-11-15 08:35:00,,0825.5,5.01,0.00,26.5,25.8,00.0,35.5,28.3,12.6,0000.0,0001.03,0000.55,0000.33
2021-11-15 08:36:00,,0825.7,4.99,0.00,26.5,25.8,00.0,35.5,28.3,12.7,0000.0,0001.15,0000.57,0000.33
2021-11-15 08:37:00,,0825.6,5.00,0.00,26.5,25.7,00.0,35.5,28.3,12.7,0000.0,0001.23,0000.58,0000.33
2021-11-15 08:38:00,,0825.5,5.00,0.00,26.5,25.7,00.0,35.5,28.3,12.8,0000.0,0001.21,0000.57,0000.33
2021-11-15 08:39:00,,0825.6,5.00,0.00,26.5,25.7,00.0,35.5,28.3,12.7,0000.0,0001.15,0000.54,0000.32
2021-11-15 08:40:00,,0825.6,4.99,0.00,26.5,25.7,00.0,35.5,28.3,12.8,0000.0,0001.13,0000.53,0000.32
2021-11-15 08:41:00,,0825.6,5.01,0.00,26.5,25.7,00.0,35.5,28.3,12.8,0000.0,0001.14,0000.53,0000.32
2021-11-15 08:42:00,,0825.6,5.01,0.00,26.5,25.7,00.0,35.5,28.3,12.7,0000.0,0001.17,0000.54,0000.32
2021-11-15 08:43:00,,0825.6,5.02,0.00,26.5,25.7,00.0,35.5,28.3,12.8,0000.0,0001.11,0000.51,0000.32
2021-11-15 08:44:00,,0825.5,5.00,0.00,26.5,25.7,00.0,35.5,28.3,13.1,0000.0,0001.07,0000.49,0000.32
2021-11-15 08:45:00,,0825.6,5.00,0.00,26.5,25.7,00.0,35.5,28.3,13.2,0000.0,0001.08,0000.50,0000.31
2021-11-15 08:46:00,,0825.6,5.00,0.00,26.5,25.7,00.0,35.5,28.3,13.2,0000.0,0000.93,0000.48,0000.31
2021-11-15 08:47:00,,0825.6,5.00,0.00,26.5,25.7,00.0,35.5,28.2,12.8,0000.0,0000.83,0000.47,0000.31
2021-11-15 08:48:00,,0825.6,5.00,0.00,26.5,25.6,00.0,35.5,28.2,13.0,0000.0,0000.87,0000.50,0000.31
2021-11-15 08:49:00,,0825.6,4.99,0.00,26.5,25.6,00.0,35.5,28.3,13.2,0000.0,0001.10,0000.54,0000.31
2021-11-15 08:50:00,,0825.6,5.00,0.00,26.5,25.6,00.0,35.5,28.3,13.4,0000.0,0001.42,0000.57,0000.32
2021-11-15 08:51:00,,0825.6,5.01,0.00,26.5,25.6,00.0,35.5,28.3,13.5,0000.0,0001.47,0000.58,0000.33
2021-11-15 08:52:00,,0825.6,4.98,0.00,26.5,25.6,00.0,35.5,28.3,13.6,0000.0,0001.49,0000.58,0000.33
2021-11-15 08:53:00,,0825.6,5.00,0.00,26.5,25.6,00.0,35.5,28.3,13.6,0000.0,0001.46,0000.58,0000.35
2021-11-15 08:54:00,,0825.6,5.00,0.00,26.5,25.6,00.0,35.5,28.3,13.5,0000.0,0001.46,0000.59,0000.37
2021-11-15 08:55:00,,0825.8,5.00,0.00,26.5,25.6,00.0,35.5,28.3,13.5,0000.0,0001.55,0000.63,0000.38
2021-11-15 08:56:00,,0825.7,5.00,0.00,26.5,25.6,00.0,35.5,28.2,13.2,0000.0,0001.58,0000.64,0000.37
2021-11-15 08:57:00,,0825.6,4.98,0.00,26.5,25.6,00.0,35.5,28.2,13.4,0000.0,0001.62,0000.66,0000.37
2021-11-15 08:58:00,,0825.6,5.02,0.00,26.5,25.6,00.0,35.5,28.2,13.5,0000.0,0001.75,0000.71,0000.38
2021-11-15 08:59:00,,0825.7,5.00,0.00,26.5,25.6,00.0,35.5,28.2,13.4,0000.0,0001.81,0000.72,0000.39
